Location: *
(52.5158°N, 13.3948°E)
Time: 18:06:58
(UTC+00:00)

Daily predictions for brighter satellites

Satellite Brightness Start Highest point End
(mag) Time Altitude Azimuth Time Altitude Azimuth Time Altitude Azimuth
STARLINK-81 3.6 17:10:31 10° WSW 17:14:33 87° S 17:18:36 10° E
NOSS 3-2 (A) 4.4 17:08:23 10° NW 17:15:05 46° NNE 17:22:42 10° E
Gbstr 26 Del rocket 4.4 17:12:21 10° S 17:15:31 22° SE 17:19:05 10° E
STARLINK-1048 3.1 17:12:10 10° WSW 17:15:36 85° SSE 17:19:03 10° E
USA 234 3.5 17:09:14 10° ENE 17:15:43 66° NNW 17:22:11 10° W
STARLINK-1044 4.0 17:12:20 10° SW 17:16:20 51° SSE 17:20:22 10° ENE
STARLINK-54 3.6 17:12:21 10° WSW 17:16:23 90° SSW 17:20:26 10° E
Cosmos 405 3.7 17:13:35 10° N 17:16:50 32° ENE 17:20:04 10° SE
STARLINK-1049 3.1 17:14:17 10° WSW 17:17:44 86° SSE 17:21:10 10° E
STARLINK-77 3.6 17:13:49 10° WSW 17:17:52 89° SSE 17:21:54 10° E
STARLINK-1027 4.0 17:14:06 10° SW 17:18:17 58° SSE 17:22:29 10° ENE
Cosmos 2369 Rocket 2.2 17:13:40 10° SSW 17:19:21 80° ESE 17:25:06 10° NNE
STARLINK-25 3.6 17:15:28 10° WSW 17:19:31 89° SSE 17:23:33 10° E
STARLINK-1051 3.1 17:16:27 10° WSW 17:19:53 87° SSE 17:23:20 10° E
Cosmos 1812 3.8 17:16:35 10° NNW 17:20:23 51° W 17:24:08 10° S
STARLINK-71 3.6 17:17:19 10° W 17:21:22 89° N 17:25:25 10° E
STARLINK-1028 3.1 17:18:04 10° WSW 17:21:32 88° S 17:24:59 10° E
Cosmos 1898 Rocket 3.6 17:17:15 10° NNW 17:22:22 56° ENE 17:27:28 10° SE
STARLINK-79 3.6 17:18:47 10° W 17:22:50 90° N 17:26:53 10° E
Cosmos 44 Rocket 3.2 17:18:16 10° NW 17:23:00 71° NE 17:27:47 10° SE
STARLINK-1021 3.1 17:20:16 10° WSW 17:23:43 89° S 17:27:06 10° E
Cosmos 2242 Rocket 3.6 17:19:11 10° N 17:23:44 67° ENE 17:28:17 10° SSE
NOSS 2-3 (D) 3.9 17:19:48 10° SSW 17:24:07 58° SE 17:29:18 10° NE
STARLINK-78 3.6 17:20:28 10° W 17:24:30 89° N 17:28:29 10° E
STARLINK-1019 3.1 17:22:28 10° W 17:25:55 90° E 17:29:13 11° E
Cosmos 1703 Rocket 3.8 17:21:42 10° N 17:26:02 47° ENE 17:30:22 10° SSE
STARLINK-1037 3.9 17:22:07 10° SW 17:26:11 56° SSE 17:30:08 11° ENE
STARLINK-57 3.6 17:22:13 10° W 17:26:15 88° N 17:30:09 11° E
USA 229 DEB 3.8 17:20:06 10° SW 17:26:43 80° NW 17:33:47 10° NE
USA 229 3.8 17:20:13 10° SW 17:26:50 80° NW 17:33:52 10° NE
SJ 16-02 1.5 17:22:41 10° NNW 17:27:02 52° ENE 17:31:19 10° SE
CENTAUR R/B 3.6 17:20:49 10° NW 17:27:45 42° NNE 17:35:27 11° E
STARLINK-49 3.6 17:23:45 10° W 17:27:48 88° N 17:31:39 11° E
STARLINK-1012 3.1 17:24:40 10° W 17:28:08 89° N 17:31:21 12° E
STARLINK-48 3.5 17:25:13 10° W 17:29:08 89° N 17:32:51 11° E
STARLINK-27 3.6 17:25:24 10° W 17:29:26 87° N 17:33:13 12° E
ARGOS 4.0 17:26:20 10° ESE 17:30:57 30° ENE 17:35:37 10° N
STARLINK-74 3.5 17:27:04 10° W 17:31:07 87° N 17:34:50 12° E
STARLINK-1059 3.8 17:27:09 10° SW 17:31:14 59° SSE 17:35:01 12° ENE
Aureole 2 Rocket 3.1 17:29:21 10° SW 17:31:55 41° WNW 17:34:35 10° NNE
STARLINK-1026 3.1 17:29:05 10° W 17:32:33 88° NNW 17:35:36 13° E
STARLINK-39 3.5 17:28:43 10° W 17:32:45 87° N 17:36:24 12° E
Okean-O 4.0 17:28:31 10° S 17:32:45 44° W 17:37:03 10° NNW
STARLINK-1023 3.0 17:29:56 10° W 17:33:15 86° N 17:36:06 13° E
NOSS 3-1 (A) 3.4 17:28:09 10° SW 17:33:50 85° SE 17:40:35 10° NE
STARLINK-31 3.5 17:30:24 10° W 17:34:27 86° N 17:38:02 13° E
STARLINK-1013 3.1 17:31:20 10° W 17:34:48 87° N 17:37:46 14° E
STARLINK-61 3.5 17:31:09 10° W 17:35:04 82° N 17:38:30 13° E
USA 186 3.2 17:34:05 13° E 17:35:09 16° ENE 17:37:03 10° NNE
Resurs 01 Rocket 3.6 17:33:49 10° ENE 17:35:20 12° NE 17:37:04 10° NNE
STARLINK-26 3.1 17:32:28 10° W 17:35:57 90° E 17:38:56 13° E
STARLINK-1057 3.8 17:32:07 10° WSW 17:36:12 62° SSE 17:39:48 13° E
Cosmos 1939 Rocket 2.9 17:32:05 10° SSE 17:36:14 87° ENE 17:40:24 10° NNW
STARLINK-69 3.6 17:32:15 10° W 17:36:17 85° N 17:39:48 13° E
STARLINK-1009 3.1 17:33:32 10° W 17:37:01 86° N 17:39:54 14° E
STARLINK-21 3.5 17:33:44 10° W 17:37:47 85° N 17:41:14 14° E
Cosmos 1869 Rocket 4.5 17:34:29 10° SE 17:38:08 26° E 17:41:47 10° NNE
CSL-04 Rocket 3.8 17:33:29 10° SSE 17:39:00 88° WSW 17:44:30 10° NNW
STARLINK-1015 3.1 17:35:48 10° W 17:39:16 85° N 17:42:04 15° E
STARLINK-45 3.5 17:35:36 10° W 17:39:39 84° N 17:43:01 14° E
STARLINK-1034 3.7 17:37:03 10° WSW 17:41:10 65° SSE 17:44:34 14° E
STARLINK-70 3.5 17:37:09 10° W 17:41:12 84° N 17:44:30 15° E
STARLINK-76 3.5 17:38:42 10° W 17:42:44 84° N 17:45:59 15° E
ATLAS 3B R/B 3.6 17:36:45 10° NW 17:42:45 34° NNE 17:48:15 13° ENE
CZ-2D R/B 3.4 17:40:02 10° SSE 17:43:56 81° WSW 17:47:51 10° NNW
STARLINK-23 3.5 17:40:21 10° W 17:44:23 84° N 17:47:34 16° E
STARLINK-1014 3.2 17:40:51 10° W 17:44:24 88° N 17:47:04 17° E
STARLINK-80 3.5 17:41:42 10° WNW 17:45:31 72° SSW 17:48:42 14° ESE
Cosmos 389 Rocket 4.4 17:43:39 10° NNE 17:45:35 14° ENE 17:45:53 14° ENE
STARLINK-32 3.5 17:41:59 10° W 17:46:01 84° N 17:49:08 16° E
STARLINK-1068 3.7 17:42:01 10° WSW 17:46:07 67° SSE 17:49:21 16° E
CZ-2C R/B 3.8 17:41:08 10° SE 17:46:22 38° ENE 17:51:27 10° N
CZ-4 R/B 2.5 17:43:31 10° S 17:47:35 50° W 17:51:37 10° NNW
STARLINK-40 3.5 17:43:39 10° W 17:47:42 83° N 17:50:45 17° E
STARLINK-44 3.5 17:45:18 10° W 17:49:21 83° N 17:52:20 18° E
Lacrosse 4 Rocket 3.7 17:46:43 10° W 17:50:04 21° NNW 17:53:29 10° NNE
STARLINK-37 3.5 17:47:05 10° W 17:51:08 83° N 17:54:02 18° E
YAOGAN 1 3.2 17:47:29 10° S 17:51:45 59° W 17:56:03 10° NNW
Cosmos 1633 Rocket 4.3 17:47:50 10° SSW 17:52:00 45° WNW 17:56:12 10° N
CRYOSAT 2 4.4 17:47:24 10° S 17:52:18 89° W 17:57:15 10° N
STARLINK-36 3.5 17:48:36 10° W 17:52:38 83° N 17:55:30 19° E
STARLINK-64 3.2 17:49:09 10° W 17:52:45 81° N 17:55:09 20° E
Okean 3 4.3 17:50:07 10° N 17:53:51 30° ENE 17:56:53 14° SE
Cosmos 2263 4.4 17:48:09 10° SSW 17:53:56 82° WNW 17:59:44 10° NNE
STARLINK-33 2.9 17:50:43 10° W 17:54:01 83° N 17:56:01 22° E
STARLINK-68 3.5 17:50:28 10° W 17:54:30 82° N 17:57:17 20° E
Ariane Rocket 3.0 17:49:37 10° SSE 17:54:39 62° ENE 17:59:42 10° N
STARLINK-55 2.9 17:52:05 10° W 17:55:23 84° N 17:57:20 22° E
USA 116 3.9 17:51:16 10° NNE 17:55:24 84° ESE 18:00:02 10° SSW
STARLINK-63 3.5 17:52:02 10° W 17:56:03 82° N 17:58:46 20° E
STARLINK-1060 3.6 17:51:56 10° WSW 17:56:04 73° SSE 17:58:55 19° E
SJ-6B 3.6 17:53:43 15° ESE 17:56:12 30° ENE 17:59:34 10° N
STARLINK-66 2.9 17:53:00 10° W 17:56:17 84° N 17:58:12 23° E
Cosmos 990 Rocket 4.0 17:51:38 10° NNW 17:56:49 85° WSW 18:01:58 10° SSE
STARLINK-28 2.9 17:53:41 10° W 17:56:59 86° N 17:58:52 23° E
STARLINK-35 3.5 17:53:34 10° W 17:57:38 82° N 18:00:16 21° E
STARLINK-42 2.9 17:54:35 10° W 17:57:49 83° N 17:59:38 24° E
STARLINK-1058 4.5 17:54:14 10° SSW 17:57:58 34° SSE 18:00:06 21° E
NOSS 2-3 (C) 3.9 17:53:42 10° SW 17:58:12 84° NW 18:03:46 10° NE
FREGAT/IRIS 3.1 17:57:40 24° ESE 17:58:41 32° ENE 18:01:11 10° N
STARLINK-51 3.5 17:55:14 10° W 17:59:17 82° N 18:01:52 21° E
STARLINK-1029 2.9 17:56:54 10° W 18:00:05 83° N 18:01:47 25° E
SKYMED 2 4.5 17:56:14 10° N 18:00:28 52° WNW 18:04:42 10° SW
STARLINK-1007 3.0 17:57:25 10° W 18:00:47 80° N 18:02:38 25° E
STARLINK-30 3.5 17:56:54 10° W 18:00:56 82° N 18:03:27 22° E
STARLINK-1030 3.6 17:56:56 10° WSW 18:01:04 75° SSE 18:03:43 21° E
Cosmos 2297 Rocket 2.8 17:55:57 10° NNW 18:01:17 40° NE 18:04:59 18° ESE
Cosmos 1943 Rocket 3.2 17:56:36 10° SW 18:01:57 47° NW 18:07:19 10° NNE
STARLINK-72 3.5 17:58:34 10° W 18:02:36 82° N 18:05:03 23° E
Cosmos 1933 Rocket 3.7 17:58:29 10° SSW 18:02:53 80° WNW 18:07:17 10° N
STARLINK-1043 4.4 17:59:08 10° SW 18:02:56 36° SSE 18:04:52 23° E
Nadezhda 4 Rocket 4.0 17:57:41 10° N 18:03:57 62° ENE 18:10:13 10° SSE
STARLINK-50 3.5 18:00:13 10° W 18:04:16 82° N 18:06:39 24° E
SJ-11-01 4.2 18:00:33 10° SSE 18:05:12 71° ENE 18:09:52 10° N
STARLINK-59 3.5 18:01:58 10° W 18:06:01 82° N 18:08:19 25° E
STARLINK-1020 3.6 18:01:53 10° WSW 18:06:01 78° SSE 18:08:30 23° E
SL-08 RB Rocket 4.3 18:04:26 18° ESE 18:07:12 34° ENE 18:11:16 10° N
STARLINK-56 3.5 18:03:32 10° W 18:07:35 82° N 18:09:50 25° E
STARLINK-1065 4.3 18:03:52 10° SW 18:07:42 38° SSE 18:09:30 25° E
STARLINK-73 3.5 18:05:11 10° W 18:09:14 82° N 18:11:25 26° E
Cosmos 1340 3.9 18:06:09 10° SW 18:09:46 44° WNW 18:13:24 10° N
STARLINK-1010 2.9 18:06:48 10° W 18:10:05 79° N 18:11:28 32° E
IRS-1A Rocket 4.1 18:04:51 10° SSE 18:10:21 78° ENE 18:15:54 10° NNW
Cosmos 1346 Rocket 3.5 18:06:51 10° SSW 18:10:45 56° WNW 18:14:39 10° N
STARLINK-38 3.5 18:06:52 10° W 18:10:55 82° N 18:13:02 27° E
STARLINK-1052 3.6 18:06:51 10° WSW 18:11:00 80° SSE 18:13:16 26° E
Cosmos 1937 Rocket 3.5 18:06:17 10° NNW 18:11:35 86° WSW 18:16:47 10° SSE
STARLINK-65 3.5 18:08:30 10° W 18:12:33 82° N 18:14:36 28° E
STARLINK-1063 4.2 18:08:56 10° SW 18:12:48 40° SSE 18:14:25 27° E
STARLINK-1047 3.6 18:09:09 10° WSW 18:13:20 82° SSE 18:15:33 27° E
Cosmos 1464 Rocket 4.0 18:07:21 10° S 18:13:42 74° E 18:20:06 10° NNE
ADEOS Rocket 3.6 18:06:16 10° NNE 18:14:08 82° ESE 18:21:47 10° SSW
Cosmos 1515 3.7 18:10:25 10° N 18:14:09 55° ENE 18:17:27 13° SSE
STARLINK-53 3.5 18:10:15 10° W 18:14:18 82° N 18:16:17 29° E
Genesis I 3.1 18:10:59 10° NW 18:14:53 83° NE 18:17:06 24° SE
USA 238 DEB 3.8 18:09:23 10° NW 18:16:30 70° NE 18:21:52 20° ESE
USA 238 3.8 18:09:29 10° NW 18:16:36 70° NE 18:21:56 20° ESE
MONITOR-E 3.7 18:16:07 41° SE 18:16:46 58° ENE 18:19:27 10° N
STARLINK-1064 4.1 18:13:51 10° SW 18:17:46 42° SSE 18:19:12 30° ESE
Meteor 2-11 Rocket 4.3 18:13:54 10° S 18:19:59 79° E 18:26:05 10° NNE
Cosmos 2227 Rocket 2.5 18:15:03 10° NNW 18:20:31 46° NE 18:23:26 25° ESE
STARLINK-1033 3.5 18:16:48 10° WSW 18:20:57 85° S 18:22:50 32° E
Meteor 1-20 Rocket 4.3 18:16:51 10° SSW 18:22:22 81° WNW 18:28:00 10° NNE
STARLINK-1041 4.0 18:18:47 10° SW 18:22:43 44° SSE 18:23:59 33° ESE
Orbus 7S? 4.0 18:17:57 10° W 18:24:09 58° NNW 18:25:54 26° NE
Cosmos 2221 Rocket 3.6 18:20:00 10° N 18:24:31 63° ENE 18:28:33 12° SSE
NOSS 3-1 (C) 4.3 18:19:17 10° WSW 18:25:00 48° NNW 18:31:45 10° NE
SL-24 DEB 4.2 18:21:10 10° SSE 18:25:45 60° E 18:30:21 10° N
Cosmos 1656 Rocket 3.9 18:20:46 10° SW 18:26:18 70° NW 18:31:58 10° NNE
Cosmos 2082 4.4 18:21:11 10° NNW 18:26:28 36° NE 18:28:36 27° E
Cosmos 1674 Rocket 4.3 18:23:32 10° N 18:27:35 32° ENE 18:28:02 32° E
STARLINK-1038 4.0 18:23:41 10° SW 18:27:40 47° SSE 18:28:45 37° ESE
STARLINK-1024 3.5 18:26:47 10° WSW 18:30:55 89° S 18:32:25 39° E
H-2A R/B 2.1 18:26:21 10° SSE 18:31:47 85° ENE 18:37:17 10° NNW
STARLINK 1040 2.4 18:29:49 10° W 18:32:38 83° N 18:32:39 83° NNE
STARLINK-1046 3.9 18:28:38 10° SW 18:32:38 49° SSE 18:33:33 41° ESE
STARLINK-22 2.9 18:32:32 10° W 18:35:52 88° S 18:36:16 67° ESE
Cosmos 372 Rocket 3.9 18:30:53 10° NNW 18:36:10 72° ENE 18:39:10 26° SE
Cosmos 2034 Rocket 3.9 18:30:06 10° S 18:36:14 78° E 18:42:26 10° NNE
STARLINK-41 2.8 18:34:02 10° W 18:37:21 86° S 18:37:41 70° ESE
STARLINK-1039 3.8 18:33:36 10° SW 18:37:38 52° SSE 18:38:22 45° ESE
STARLINK-1016 3.0 18:34:53 10° W 18:38:18 82° N 18:38:43 66° ENE
Cosmos 220 Rocket 3.8 18:35:02 10° SSW 18:39:19 81° ESE 18:43:36 10° NNE
STARLINK-1008 2.9 18:36:32 10° W 18:39:58 83° N 18:40:20 69° ENE
STARLINK-1032 3.5 18:36:44 10° W 18:40:54 88° N 18:41:59 48° E
STARLINK-75 2.9 18:38:21 10° W 18:41:44 80° SSW 18:41:58 73° SE
STARLINK-1045 3.7 18:38:32 10° SW 18:42:35 55° SSE 18:43:08 50° ESE
STARLINK-58 3.0 18:39:21 10° W 18:42:55 88° SSW 18:43:17 70° ESE
STARLINK-24 3.4 18:39:00 10° W 18:43:03 87° NNE 18:43:51 56° E
STARLINK-1025 2.9 18:40:42 10° W 18:44:08 84° N 18:44:21 77° ENE
STARLINK-62 3.0 18:41:03 10° W 18:44:37 87° S 18:44:55 73° ESE
Resurs 1-3 3.7 18:44:36 46° ESE 18:45:20 52° ENE 18:49:38 10° N
STARLINK-1011 3.5 18:41:42 10° W 18:45:51 87° NNW 18:46:45 54° ENE
STARLINK-1017 2.9 18:42:48 10° W 18:46:14 84° N 18:46:21 81° ENE
STARLINK-34 3.0 18:42:40 10° W 18:46:14 86° SSW 18:46:29 76° ESE
Lacrosse 5 rocket 1.5 18:42:22 10° WNW 18:46:58 87° NNE 18:48:11 49° ESE
STARLINK-1050 3.6 18:43:31 10° SW 18:47:36 59° SSE 18:47:59 56° SE
STARLINK-1035 3.6 18:43:20 10° W 18:47:36 85° N 18:48:33 54° ENE
STARLINK-1031 3.5 18:43:42 10° W 18:47:50 85° N 18:48:37 57° ENE
Cosmos 2219 3.2 18:43:05 10° NNW 18:48:54 89° WSW 18:52:15 26° SSE
Cosmos 468 Rocket 4.2 18:43:53 10° SSW 18:49:11 75° WNW 18:54:33 10° NNE
MetOp-A 4.1 18:46:49 30° SE 18:49:28 65° ENE 18:54:48 10° N
STARLINK-1036 3.5 18:46:41 10° W 18:50:51 86° N 18:51:32 61° ENE
Cosmos 1092 Rocket 3.9 18:45:27 10° N 18:51:51 84° ENE 18:58:13 10° S
STARLINK-1055 3.6 18:48:28 10° WSW 18:52:33 61° SSE 18:52:45 60° SE
STARLINK-1048 3.1 18:49:09 10° W 18:52:29 82° NW 18:52:29 82° NW
STARLINK-81 3.4 18:49:43 10° W 18:53:46 88° N 18:54:10 72° E
STARLINK-1049 3.1 18:51:17 10° W 18:54:32 78° WNW 18:54:32 78° WNW
Lacrosse 5 1.9 18:49:52 10° SW 18:54:50 56° SE 18:55:38 50° ESE
STARLINK-54 3.3 18:51:34 10° W 18:55:36 89° SSW 18:55:56 75° ESE
STARLINK-1044 3.5 18:51:41 10° W 18:55:50 85° N 18:56:19 68° ENE
Meteor 2-4 Rocket 4.0 18:50:01 10° NNW 18:55:56 74° W 19:01:51 10° S
STARLINK-1051 3.2 18:53:27 10° W 18:56:37 74° WNW 18:56:37 74° WNW
STARLINK-77 3.3 18:53:02 10° W 18:57:04 89° N 18:57:20 78° E
STARLINK-1022 3.6 18:53:25 10° WSW 18:57:31 64° SSE 18:57:32 64° SSE
STARLINK-1027 3.6 18:54:00 10° W 18:58:17 83° N 18:58:47 68° ENE
USA 234 3.4 18:55:20 33° ENE 18:58:26 64° N 19:04:53 10° WNW
STARLINK-1028 3.3 18:55:07 10° W 18:58:14 71° WNW 18:58:14 71° WNW
STARLINK-25 3.3 18:54:40 10° W 18:58:44 90° E 18:58:55 81° E
Cosmos 2263 Rocket 3.6 18:54:33 10° NNW 18:58:56 22° NNE 18:59:45 21° NE
CZ-2C R/B 4.0 18:54:38 10° NNE 18:57:07 23° NE 18:57:07 23° NE
Cosmos 1634 Rocket 4.0 18:53:50 10° SSE 18:59:59 57° E 19:06:11 10° NNE
STARLINK-71 3.4 18:56:32 10° W 19:00:35 87° S 19:00:42 84° SE
STARLINK-1021 3.4 18:57:18 10° W 19:00:21 67° WNW 19:00:21 67° WNW
GP-B 3.3 19:01:33 51° NE 19:01:33 51° NE 19:05:19 10° N
Gbstr 26 Del rocket 3.1 18:57:28 10° WSW 19:01:41 65° SSE 19:02:07 61° SE
STARLINK-79 3.4 18:58:00 10° W 19:02:03 89° S 19:02:07 86° ESE
STARLINK-1042 3.6 18:58:23 10° WSW 19:02:20 66° S 19:02:20 66° S
STARLINK-1019 3.5 18:59:31 10° W 19:02:28 63° W 19:02:28 63° W
Cosmos 1814 Rocket 3.8 18:57:55 10° SSW 19:03:00 68° ESE 19:08:08 10° NNE
Meteor 1-4 Rocket 4.3 19:00:08 10° N 19:01:48 23° NNE 19:01:48 23° NNE
STARLINK-78 3.4 18:59:40 10° W 19:03:43 88° S 19:03:43 88° S
Cosmos 2195 Rocket 4.4 18:57:36 10° N 19:03:47 87° E 19:08:27 19° S
Cosmos 2369 Rocket 4.1 18:59:10 10° W 19:04:02 28° NW 19:08:57 10° NNE
Meteor 2-13 Rocket 4.5 18:58:30 10° N 19:04:28 55° ENE 19:05:45 47° ESE
STARLINK-1012 3.6 19:01:44 10° W 19:04:37 59° W 19:04:37 59° W
SJ 16-02 3.7 19:01:52 10° NW 19:05:18 22° W 19:08:42 10° SSW
STARLINK-57 3.4 19:01:25 10° W 19:05:23 85° SW 19:05:23 85° SW
STARLINK-1037 3.5 19:01:33 10° W 19:05:43 83° N 19:05:48 82° NNE
USA 186 3.3 19:05:54 29° W 19:05:58 29° W 19:08:35 10° NNW
NOSS 3-2 (A) 4.0 18:59:19 10° NW 19:06:38 81° SW 19:10:56 32° SE
STARLINK-49 3.5 19:02:58 10° W 19:06:53 83° WSW 19:06:53 83° WSW
STARLINK-1056 3.7 19:03:21 10° WSW 19:07:06 65° SSW 19:07:06 65° SSW
STARLINK-48 4.3 19:03:55 10° W 19:07:36 41° SSW 19:07:38 41° SSW
STARLINK-27 3.5 19:04:36 10° W 19:08:28 80° W 19:08:28 80° W
Cosmos 841 Rocket 3.3 19:03:54 10° SSW 19:09:03 82° ESE 19:14:16 10° NNE
Cosmos 1763 Rocket 3.9 19:04:22 10° SW 19:09:34 64° WNW 19:14:53 10° NNE
Cosmos 2298 Rocket 4.2 19:04:15 10° NNW 19:09:35 70° WSW 19:12:02 32° S
STARLINK-1026 3.9 19:06:10 10° W 19:08:53 52° W 19:08:53 52° W
STARLINK-1023 4.1 19:06:27 10° W 19:08:53 45° W 19:08:53 45° W
STARLINK-74 3.6 19:06:17 10° W 19:10:04 77° W 19:10:04 77° W
NOSS 3-2 (C) 3.9 19:03:14 10° NW 19:10:32 84° NE 19:13:51 40° SE
STARLINK-1059 3.6 19:06:37 10° W 19:10:40 81° NW 19:10:40 81° NW
ARGOS 3.7 19:05:36 10° S 19:10:56 57° W 19:16:20 10° NNW
Resurs 01 Rocket 1.7 19:11:23 63° NE 19:11:23 63° NE 19:15:26 10° N
STARLINK-1013 4.0 19:08:25 10° W 19:11:03 49° W 19:11:03 49° W
STARLINK-39 3.6 19:07:55 10° W 19:11:38 74° W 19:11:38 74° W
STARLINK-1054 3.8 19:08:17 10° WSW 19:11:52 61° SW 19:11:52 61° SW
STARLINK-31 3.7 19:09:36 10° W 19:13:16 71° W 19:13:16 71° W
STARLINK-61 3.9 19:09:56 10° WNW 19:13:23 58° WSW 19:13:23 58° WSW
STARLINK-1009 4.1 19:10:38 10° W 19:13:12 46° W 19:13:12 46° W
STARLINK-69 3.8 19:11:27 10° WNW 19:15:02 68° W 19:15:02 68° W
ARGOS Delta rocket 4.2 19:13:10 24° SSW 19:15:42 56° W 19:20:12 10° NNW
STARLINK-1057 3.7 19:11:37 10° W 19:15:27 74° WNW 19:15:27 74° WNW
Cosmos 2208 Rocket 4.0 19:10:48 10° SSW 19:16:13 84° WNW 19:21:35 10° NNE
SPOT 3 Rocket 3.8 19:13:10 25° S 19:16:14 68° WSW 19:21:28 10° NNW
STARLINK-1015 4.2 19:12:55 10° W 19:15:23 44° W 19:15:23 44° W
Meteor 1-11 Rocket 3.5 19:11:09 10° S 19:16:41 69° E 19:22:11 10° NNE
STARLINK-21 3.8 19:12:56 10° W 19:16:28 66° W 19:16:28 66° W
STARLINK-1062 4.0 19:13:15 10° WSW 19:16:39 57° SW 19:16:39 57° SW
STARLINK-45 3.9 19:14:48 10° WNW 19:18:15 62° W 19:18:15 62° W
CENTAUR R/B 3.1 19:11:45 10° NW 19:19:33 81° NE 19:22:39 44° ESE
STARLINK-70 4.0 19:16:21 10° WNW 19:19:45 60° W 19:19:45 60° W
STARLINK-1034 3.9 19:16:35 10° W 19:20:13 67° WNW 19:20:13 67° WNW
Cosmos 389 Rocket 3.5 19:17:09 10° NNW 19:19:48 44° NW 19:19:48 44° NW
STARLINK-1014 4.4 19:18:04 10° W 19:20:28 41° W 19:20:28 41° W
STARLINK-76 4.0 19:17:53 10° WNW 19:21:13 58° W 19:21:13 58° W
STARLINK-1053 4.2 19:18:14 10° WSW 19:21:27 52° WSW 19:21:27 52° WSW
Cosmos 1733 Rocket 4.2 19:25:04 33° N 19:25:04 33° N 19:27:31 10° N
STARLINK-23 4.1 19:19:33 10° WNW 19:22:49 56° W 19:22:49 56° W
STARLINK-32 4.2 19:21:11 10° WNW 19:24:23 54° W 19:24:23 54° W
STARLINK-1068 4.1 19:21:34 10° W 19:25:00 60° WNW 19:25:00 60° WNW
CZ-2C R/B 4.2 19:20:35 10° S 19:26:08 47° W 19:31:33 10° NNW
STARLINK-40 4.2 19:22:51 10° WNW 19:25:59 52° W 19:25:59 52° W
STARLINK-1061 4.4 19:23:11 10° WSW 19:26:13 47° WSW 19:26:13 47° WSW
STARLINK-44 4.3 19:24:31 10° WNW 19:27:35 50° W 19:27:35 50° W
STARLINK-37 4.4 19:26:16 10° WNW 19:29:16 47° W 19:29:16 47° W
Lacrosse 4 Rocket 4.2 19:29:01 10° NNW 19:30:25 11° N 19:31:50 10° NNE
Cosmos 1125 Rocket 3.4 19:26:14 10° NNW 19:31:35 82° WSW 19:32:01 74° S
STARLINK-36 4.5 19:27:47 10° WNW 19:30:44 46° W 19:30:44 46° W
Cosmos 1378 Rocket 4.2 19:28:34 10° NNW 19:31:47 49° NNW 19:31:47 49° NNW
ATLAS 3B R/B 2.6 19:27:51 10° NW 19:34:33 67° NE 19:35:31 60° E
Cosmos 540 Rocket 3.6 19:30:32 10° SSW 19:35:40 73° WNW 19:40:51 10° NNE
Cosmos 1066 Rocket 4.2 19:35:38 10° NNW 19:41:27 86° WSW 19:41:59 75° S
Cosmos 2297 Rocket 2.9 19:40:03 10° NW 19:45:31 49° WSW 19:46:50 41° SSW
CZ-2C R/B 4.3 19:41:05 10° N 19:45:38 56° WNW 19:50:15 10° SW
Spot 2 Rocket 4.0 19:51:22 54° N 19:51:22 54° N 19:55:20 10° NNW
Terra 3.9 19:57:29 18° NNE 19:57:29 18° NNE 19:58:58 10° N
Cosmos 2266 Rocket 4.2 19:53:41 10° N 19:59:05 61° NNE 19:59:05 61° NNE
Cosmos 2227 Rocket 3.1 19:59:17 10° NW 20:04:33 40° WSW 20:05:17 39° SW
Cosmos 2082 4.2 20:05:16 10° NW 20:10:31 55° W 20:10:31 55° W
Lacrosse 5 rocket 3.9 20:21:55 10° WNW 20:23:51 20° W 20:23:51 20° W
Cosmos 1655 Rocket 4.4 20:21:14 10° NNW 20:27:24 60° W 20:27:24 60° W
Lacrosse 5 3.8 20:32:49 10° W 20:34:52 24° W 20:34:52 24° W
CZ-2C R/B 3.9 20:34:50 10° N 20:38:39 38° NNW 20:38:39 38° NNW
USA 234 3.6 20:42:41 60° WNW 20:42:41 60° WNW 20:47:57 10° WNW
Cosmos 2263 Rocket 3.5 20:38:11 10° NNW 20:41:27 35° NNW 20:41:27 35° NNW
Resurs 01 Rocket 4.2 20:48:56 17° WNW 20:48:56 17° WNW 20:51:01 10° NW
CENTAUR R/B 4.0 21:02:45 10° NW 21:09:51 38° WSW 21:09:51 38° WSW
ATLAS 3B R/B 4.0 21:18:49 10° NW 21:22:47 31° W 21:22:47 31° W
ATLAS 2AS CENTAUR R/B 4.3 23:45:29 32° NNE 23:45:29 32° NNE 23:50:20 10° ENE
